Paris, IL

10:56 AM CDT on June 27, 2017 (GMT -0500)
Edgar County

Weather History for KPRG - December, 2012

Change the Weather History Date:

Sunday, December 2, 2012

  Actual Average (KHUF) Record (KHUF)
Temperature  
Mean Temperature 60 °F -  
Max Temperature 66 °F 46 °F 68 °F (1970)
Min Temperature 53 °F 27 °F 10 °F (1985)
Degree Days  
Heating Degree Days 6    
Growing Degree Days 10 (Base 50)    
Moisture  
Dew Point 54 °F    
Average Humidity 85    
Maximum Humidity 100    
Minimum Humidity 65    
Precipitation  
Precipitation 0.11 in - - ()
Sea Level Pressure  
Sea Level Pressure 30.03 in    
Wind  
Wind Speed 15 mph (SSW)    
Max Wind Speed 24 mph    
Max Gust Speed 31 mph    
Visibility 8 miles    
Events Rain    
Averages and records for this station are not official NWS values.
T = Trace of Precipitation, MM = Missing Value Source: NWS Daily Summary

Daily Weather History Graph

Daily Weather History Graph

Search for Another Location

Airport or City:

Trip Planner

Search our weather history database for the weather conditions in past years. The results will help you decide how hot, cold, wet, or windy it might be!

Date:

Astronomy

Dec. 02, 2012 Rise Set
Actual Time 6:53 AM CST 4:26 PM CST
Civil Twilight 6:24 AM CST 4:56 PM CST
Nautical Twilight 5:50 AM CST 5:29 PM CST
Astronomical Twilight 5:17 AM CST 6:02 PM CST
Moon 8:13 PM CST (12/2) 9:43 AM CST (12/2)
Length of Visible Light 10h 32m
Length of Day
9h 32m
Waning Gibbous, 85% of the Moon is Illuminated
Dec 2
Waning Gibbous
Dec 6
Last Quarter
Dec 13
New
Dec 19
First Quarter
Dec 28
Full

Hourly Weather History & Observations

Time (CST) Temp. Dew Point Humidity Pressure Visibility Wind Dir Wind Speed Gust Speed Precip Events Conditions
12:15 AM 59.4 °F 47.7 °F 65% 30.01 in 10.0 mi South 19.6 mph 26.5 mph N/A   Scattered Clouds
12:35 AM 59.4 °F 48.2 °F 67% 30.00 in 10.0 mi South 18.4 mph 26.5 mph N/A   Scattered Clouds
12:55 AM 59.9 °F 48.6 °F 66% 29.99 in 10.0 mi South 21.9 mph 31.1 mph N/A   Mostly Cloudy
1:15 AM 59.9 °F 48.7 °F 67% 29.99 in 10.0 mi South 23.0 mph 29.9 mph N/A   Mostly Cloudy
1:35 AM 59.9 °F 49.1 °F 67% 29.98 in 10.0 mi South 24.2 mph 29.9 mph N/A   Overcast
1:55 AM 59.9 °F 49.1 °F 67% 29.98 in 10.0 mi South 21.9 mph 29.9 mph N/A   Overcast
2:15 AM 59.2 °F 49.5 °F 70% 29.99 in 10.0 mi SSW 23.0 mph 28.8 mph N/A   Overcast
2:35 AM 56.5 °F 51.8 °F 84% 29.99 in 5.0 mi SSW 13.8 mph 18.4 mph 0.07 in Rain Rain
2:55 AM 55.8 °F 52.2 °F 88% 29.99 in 10.0 mi SSW 16.1 mph 19.6 mph 0.10 in Rain Light Rain
3:15 AM 55.6 °F 52.2 °F 88% 29.99 in 10.0 mi South 19.6 mph 24.2 mph N/A Rain Light Rain
3:35 AM 55.4 °F 52.2 °F 89% 29.98 in 10.0 mi South 16.1 mph - 0.01 in Rain Light Rain
3:55 AM 55.8 °F 52.3 °F 88% 29.97 in 10.0 mi SSW 15.0 mph - 0.01 in   Overcast
4:15 AM 55.9 °F 52.2 °F 87% 29.97 in 10.0 mi SSW 12.7 mph - N/A   Overcast
4:35 AM 56.3 °F 52.3 °F 87% 29.97 in 10.0 mi SSW 17.3 mph - N/A   Overcast
4:55 AM 56.1 °F 52.2 °F 87% 29.97 in 10.0 mi SSW 16.1 mph 21.9 mph N/A   Overcast
5:15 AM 56.3 °F 52.3 °F 87% 29.98 in 10.0 mi SSW 16.1 mph 21.9 mph N/A   Overcast
5:35 AM 56.3 °F 52.2 °F 86% 29.98 in 10.0 mi SSW 16.1 mph 20.7 mph N/A   Overcast
5:55 AM 55.9 °F 52.0 °F 87% 29.99 in 10.0 mi SSW 13.8 mph - N/A   Overcast
6:15 AM 56.3 °F 52.2 °F 86% 30.00 in 10.0 mi SSW 13.8 mph - N/A   Overcast
6:35 AM 56.5 °F 52.2 °F 85% 29.99 in 10.0 mi SSW 12.7 mph - N/A   Overcast
6:55 AM 56.5 °F 52.0 °F 85% 30.00 in 10.0 mi SSW 13.8 mph - N/A   Mostly Cloudy
7:15 AM 56.3 °F 52.0 °F 85% 30.01 in 10.0 mi SSW 10.4 mph - N/A   Mostly Cloudy
7:35 AM 56.7 °F 52.3 °F 85% 30.02 in 10.0 mi SW 10.4 mph - N/A   Mostly Cloudy
7:55 AM 57.4 °F 52.9 °F 85% 30.02 in 10.0 mi SSW 11.5 mph - N/A   Overcast
8:15 AM 58.1 °F 53.1 °F 83% 30.03 in 10.0 mi SSW 12.7 mph - N/A   Overcast
8:35 AM 58.3 °F 53.6 °F 84% 30.03 in 10.0 mi SSW 13.8 mph - N/A   Mostly Cloudy
8:55 AM 59.2 °F 54.1 °F 83% 30.04 in 10.0 mi SSW 13.8 mph - N/A   Scattered Clouds
9:15 AM 61.0 °F 55.4 °F 82% 30.03 in 10.0 mi SW 16.1 mph - N/A   Scattered Clouds
9:35 AM 62.2 °F 55.9 °F 80% 30.03 in 10.0 mi SW 18.4 mph - N/A   Scattered Clouds
9:55 AM 62.1 °F 55.8 °F 80% 30.04 in 10.0 mi SW 16.1 mph - N/A   Mostly Cloudy
10:15 AM 63.1 °F 56.5 °F 79% 30.05 in 10.0 mi SW 18.4 mph 23.0 mph N/A   Mostly Cloudy
10:35 AM 62.6 °F 56.5 °F 80% 30.04 in 10.0 mi SW 13.8 mph 21.9 mph N/A   Overcast
10:55 AM 63.0 °F 56.7 °F 80% 30.04 in 10.0 mi SW 16.1 mph - N/A   Mostly Cloudy
11:15 AM 63.1 °F 57.2 °F 81% 30.03 in 10.0 mi SW 16.1 mph - N/A   Mostly Cloudy
11:35 AM 64.4 °F 57.9 °F 79% 30.03 in 10.0 mi WSW 16.1 mph 19.6 mph N/A   Overcast
11:55 AM 64.6 °F 57.6 °F 78% 30.03 in 10.0 mi WSW 10.4 mph - N/A   Overcast
12:15 PM 64.4 °F 57.4 °F 78% 30.03 in 10.0 mi WSW 12.7 mph 17.3 mph N/A   Overcast
12:35 PM 64.9 °F 57.7 °F 77% 30.02 in 10.0 mi WSW 11.5 mph 16.1 mph N/A   Overcast
12:55 PM 65.5 °F 57.0 °F 74% 30.02 in 10.0 mi SW 15.0 mph - N/A   Scattered Clouds
1:15 PM 65.8 °F 57.0 °F 73% 30.01 in 10.0 mi SW 12.7 mph - N/A   Scattered Clouds
1:35 PM 65.5 °F 56.8 °F 74% 30.02 in 10.0 mi SW 11.5 mph - N/A   Scattered Clouds
1:55 PM 65.5 °F 57.2 °F 75% 30.02 in 10.0 mi SW 11.5 mph - N/A   Mostly Cloudy
2:15 PM 66.2 °F 57.9 °F 75% 30.02 in 10.0 mi SW 9.2 mph - N/A   Overcast
2:35 PM 65.3 °F 56.8 °F 74% 30.03 in 10.0 mi SW 8.1 mph - N/A   Overcast
2:55 PM 64.8 °F 57.2 °F 76% 30.03 in 7.0 mi SW 9.2 mph - N/A   Mostly Cloudy
3:15 PM 64.9 °F 56.7 °F 74% 30.03 in 10.0 mi SW 6.9 mph - N/A   Mostly Cloudy
3:35 PM 62.4 °F 56.3 °F 80% 30.03 in 7.0 mi SSW 8.1 mph - N/A   Scattered Clouds
3:55 PM 62.2 °F 56.5 °F 81% 30.03 in 10.0 mi SSW 6.9 mph - N/A   Scattered Clouds
4:15 PM 59.2 °F 54.9 °F 86% 30.03 in 7.0 mi SSW 6.9 mph - N/A   Clear
4:35 PM 57.4 °F 54.0 °F 88% 30.04 in 7.0 mi South 4.6 mph - N/A   Scattered Clouds
4:55 PM 55.6 °F 52.9 °F 91% 30.04 in 7.0 mi South 8.1 mph - N/A   Mostly Cloudy
5:15 PM 54.7 °F 52.5 °F 92% 30.04 in 7.0 mi South 8.1 mph - N/A   Scattered Clouds
5:35 PM 55.0 °F 53.6 °F 95% 30.04 in 7.0 mi South 9.2 mph - N/A   Scattered Clouds
5:55 PM 55.8 °F 54.3 °F 95% 30.05 in 5.0 mi South 8.1 mph - N/A   Scattered Clouds
6:15 PM 54.5 °F 53.1 °F 95% 30.05 in 5.0 mi South 6.9 mph - N/A   Clear
6:35 PM 53.4 °F 52.2 °F 95% 30.06 in 4.0 mi South 8.1 mph - N/A   Clear
6:55 PM 53.8 °F 52.9 °F 97% 30.07 in 4.0 mi South 4.6 mph - N/A   Clear
7:15 PM 53.1 °F 52.2 °F 97% 30.07 in 3.0 mi South 6.9 mph - N/A   Mist
7:35 PM 53.1 °F 52.3 °F 97% 30.08 in 2.5 mi South 5.8 mph - N/A   Mist
7:55 PM 53.6 °F 52.9 °F 97% 30.08 in 3.0 mi South 5.8 mph - N/A   Overcast
8:15 PM 54.7 °F 54.1 °F 98% 30.09 in 2.5 mi South 3.5 mph - N/A   Mist
8:35 PM 54.1 °F 53.4 °F 97% 30.09 in 1.2 mi South 4.6 mph - N/A   Overcast
8:56 PM 55.4 °F 55.4 °F 100% 30.09 in 4.0 mi SSW 5.8 mph - N/A   Mostly Cloudy
9:16 PM 55.4 °F 55.4 °F 100% 30.09 in 3.0 mi South 8.1 mph - N/A   Overcast
9:37 PM 55.4 °F 55.4 °F 100% 30.09 in 3.0 mi SSW 4.6 mph - N/A   Overcast
9:57 PM 55.4 °F 55.4 °F 100% 30.09 in 3.0 mi South 5.8 mph - N/A   Overcast
10:17 PM 57.2 °F 57.2 °F 100% 30.08 in 3.0 mi SSW 9.2 mph - N/A   Overcast
10:37 PM 59.0 °F 57.2 °F 94% 30.09 in 3.0 mi South 5.8 mph - N/A   Overcast
10:55 PM 58.1 °F 57.6 °F 98% 30.09 in 2.5 mi SSE 6.9 mph - N/A   Overcast
11:15 PM 58.3 °F 57.7 °F 98% 30.09 in 2.0 mi SSE 5.8 mph - N/A   Overcast
11:35 PM 57.4 °F 56.8 °F 98% 30.08 in 1.8 mi SSE 6.9 mph - N/A   Overcast
11:55 PM 58.1 °F 57.6 °F 98% 30.08 in 2.0 mi SSE 6.9 mph - N/A   Overcast